| time (UTC) | temp C | wind direction | speed KPH | gust KPH | rain 1hr cm | rain 24hr cm | rain mn cm | humidity % | barometer mb |
| 20260504100108 | -17 | 0.0 | 0.0 | 0.00 | 0.00 | 0.00 | 1013.6 | ||
| 20260504081529 | -17 | 0.0 | 0.0 | 0.00 | 0.00 | 0.00 | 1014.2 | ||
| 20260504044527 | -17 | 0.0 | 0.0 | 0.00 | 0.00 | 0.00 | 1015.8 | ||
| 20260504043023 | -17 | 0.0 | 0.0 | 0.00 | 0.00 | 0.00 | 1015.6 | ||
| 20260504041518 | -17 | 0.0 | 0.0 | 0.00 | 0.00 | 0.00 | 1015.7 | ||
| 20260504040034 | 9 | 207 | 0.0 | 0.0 | 0.00 | 0.00 | 0.00 | 32 | 1015.8 |
| 20260504034509 | 8 | 207 | 0.0 | 0.0 | 0.00 | 0.00 | 0.00 | 37 | 1015.6 |
| 20260504033005 | 8 | 207 | 0.0 | 0.0 | 0.00 | 0.00 | 0.00 | 42 | 1015.8 |
| 20260504031501 | 9 | 207 | 0.0 | 0.0 | 0.00 | 0.00 | 0.00 | 45 | 1015.7 |
| 20260504030056 | 9 | 207 | 0.0 | 0.0 | 0.00 | 0.00 | 0.00 | 45 | 1015.6 |
| 20260504024553 | 9 | 207 | 0.0 | 0.0 | 0.00 | 0.00 | 0.00 | 50 | 1015.7 |
| 20260504023057 | 9 | 207 | 0.0 | 0.0 | 0.00 | 0.00 | 0.00 | 53 | 1015.6 |
| 20260504021545 | 9 | 207 | 0.0 | 0.0 | 0.00 | 0.00 | 0.00 | 56 | 1015.4 |
| 20260504020039 | 10 | 207 | 0.0 | 0.0 | 0.00 | 0.00 | 0.00 | 59 | 1015.2 |
| 20260504014537 | 10 | 207 | 0.0 | 0.0 | 0.00 | 0.00 | 0.00 | 61 | 1015.2 |
| 20260504013031 | 10 | 207 | 0.0 | 0.0 | 0.00 | 0.00 | 0.00 | 61 | 1015.2 |
| 20260504011526 | 11 | 207 | 0.0 | 0.0 | 0.00 | 0.00 | 0.00 | 58 | 1015.1 |
| 20260504010021 | 12 | 207 | 0.0 | 0.0 | 0.00 | 0.00 | 0.00 | 55 | 1015.2 |
| 20260504004521 | 13 | 207 | 0.0 | 0.0 | 0.00 | 0.00 | 0.00 | 53 | 1015.0 |
| 20260504003013 | 13 | 207 | 0.0 | 0.0 | 0.00 | 0.00 | 0.00 | 48 | 1015.0 |
| 20260504001508 | 14 | 207 | 0.0 | 0.0 | 0.00 | 0.00 | 0.00 | 42 | 1015.1 |
| 20260504000004 | 15 | 207 | 0.0 | 0.0 | 0.00 | 0.00 | 0.00 | 40 | 1015.0 |
| 20260503234600 | 15 | 207 | 0.0 | 0.0 | 0.00 | 0.00 | 0.00 | 39 | 1014.9 |
| 20260503233055 | 15 | 207 | 0.0 | 14.5 | 0.00 | 0.00 | 0.00 | 40 | 1015.1 |
| 20260503231551 | 16 | 155 | 0.0 | 12.9 | 0.00 | 0.00 | 0.00 | 39 | 1015.1 |
| 20260503230052 | 16 | 157 | 0.0 | 11.3 | 0.00 | 0.00 | 0.00 | 40 | 1015.3 |
| 20260503224545 | 16 | 89 | 0.0 | 14.5 | 0.00 | 0.00 | 0.00 | 38 | 1015.5 |
| 20260503223038 | 16 | 186 | 1.6 | 9.7 | 0.00 | 0.00 | 0.00 | 38 | 1015.6 |
| 20260503221534 | 17 | 250 | 0.0 | 12.9 | 0.00 | 0.00 | 0.00 | 37 | 1015.5 |
| 20260503220029 | 17 | 282 | 0.0 | 1.6 | 0.00 | 0.00 | 0.00 | 36 | 1015.6 |
| 20260503214524 | 17 | 281 | 0.0 | 9.7 | 0.00 | 0.00 | 0.00 | 35 | 1015.8 |
| 20260503213021 | 18 | 276 | 0.0 | 9.7 | 0.00 | 0.00 | 0.00 | 36 | 1015.9 |
| 20260503211516 | 18 | 304 | 1.6 | 12.9 | 0.00 | 0.00 | 0.00 | 34 | 1015.8 |
| 20260503210011 | 18 | 103 | 0.0 | 14.5 | 0.00 | 0.00 | 0.00 | 37 | 1016.0 |
| 20260503204507 | 18 | 341 | 0.0 | 12.9 | 0.00 | 0.00 | 0.00 | 36 | 1016.1 |
| 20260503203003 | 18 | 232 | 0.0 | 19.3 | 0.00 | 0.00 | 0.00 | 33 | 1016.5 |
| 20260503201558 | 18 | 201 | 0.0 | 6.4 | 0.00 | 0.00 | 0.00 | 34 | 1016.7 |
| 20260503200059 | 18 | 232 | 0.0 | 20.9 | 0.00 | 0.00 | 0.00 | 39 | 1016.9 |
| 20260503194550 | 18 | 301 | 0.0 | 9.7 | 0.00 | 0.00 | 0.00 | 36 | 1017.2 |
| 20260503193049 | 18 | 221 | 0.0 | 12.9 | 0.00 | 0.00 | 0.00 | 35 | 1017.5 |
| 20260503191540 | 18 | 227 | 0.0 | 14.5 | 0.00 | 0.00 | 0.00 | 36 | 1017.9 |
| 20260503190041 | 17 | 204 | 0.0 | 9.7 | 0.00 | 0.00 | 0.00 | 39 | 1018.3 |
| 20260503184533 | 17 | 62 | 4.8 | 19.3 | 0.00 | 0.00 | 0.00 | 38 | 1018.6 |
| 20260503183027 | 17 | 302 | 0.0 | 3.2 | 0.00 | 0.00 | 0.00 | 37 | 1018.9 |
| 20260503181523 | 16 | 302 | 0.0 | 12.9 | 0.00 | 0.00 | 0.00 | 38 | 1019.1 |
| 20260503180020 | 16 | 183 | 0.0 | 14.5 | 0.00 | 0.00 | 0.00 | 39 | 1019.2 |
| 20260503174515 | 16 | 133 | 6.4 | 14.5 | 0.00 | 0.00 | 0.00 | 41 | 1019.6 |
| 20260503173020 | 15 | 285 | 0.0 | 12.9 | 0.00 | 0.00 | 0.00 | 41 | 1019.7 |
| 20260503171512 | 15 | 277 | 0.0 | 11.3 | 0.00 | 0.00 | 0.00 | 39 | 1019.7 |